Regional Weather Roundup
Issued by NWS

Home | Current Version | Previous Version | Text Only | Print | Product List | Glossary Off
Versions: 1 2 3 4 5 6 7 8 9 10 11 12 13 14 15 16 17 18 19 20 21 22 23 24 25 26 27 28 29 30 31 32 33 34 35 36 37 38 39 40 41 42 43 44 45 46 47 48 49 50

000
ASUS43 KIND 290759
RWRIN

WEATHER ROUNDUP FOR INDIANA
NATIONAL WEATHER SERVICE INDIANAPOLIS IN
300 AM EST THU JAN 29 2015

NOTE: "FAIR" INDICATES FEW OR NO CLOUDS BELOW 12,000 FEET WITH NO
SIGNIFICANT WEATHER AND/OR OBSTRUCTIONS TO VISIBILITY.

* - STATION DOES NOT REPORT WEATHER SUCH AS PRECIPITATION OR FOG.

+ - STATION NOT QUALITY CONTROLLED BY THE NATIONAL WEATHER SERVICE.
    USE DATA WITH CAUTION...ESPECIALLY DEWPOINT AND RELATIVE
    HUMIDITY OBSERVATIONS.

INZ001>003-010>013-019-020-290900-
NORTHWEST INDIANA

CITY           SKY/WX    TMP DP  RH WIND       PRES   REMARKS
VALPARAISO     NOT AVBL

$$

LMZ046-743>745-290900-
SOUTHERN LAKE MICHIGAN

STATION/POSITION TIME  TEMP WIND        PRES
                       AIR  DIR/SP/G
                 (UTC) (F)  (DEG/KT/KT) (MB)
MICHIGAN CITY    0700   35  140/ 14/ 21   N/A

$$

INZ004-005-014>016-021>024-290900-
NORTH CENTRAL INDIANA

CITY           SKY/WX    TMP DP  RH WIND       PRES   REMARKS
GOSHEN         FRZ RAIN  32  24  72 S15       29.87F WCI  22
SOUTH BEND     CLOUDY    34  24  67 S16       29.84F WCI  24

$$

INZ006>009-017-018-025>027-290900-
NORTHEAST INDIANA

CITY           SKY/WX    TMP DP  RH WIND       PRES   REMARKS
ANGOLA *+      MOCLDY    28  21  74 S10       29.91F WCI  19
FORT WAYNE     CLOUDY    32  21  64 SE10      29.93F WCI  24

$$

INZ028-029-035-036-043>045-051>053-290900-
WEST CENTRAL INDIANA

CITY           SKY/WX    TMP DP  RH WIND       PRES   REMARKS
GREENCASTLE +  CLOUDY    37  19  48 S14       29.89F
LAFAYETTE      CLOUDY    37  22  54 S10       29.83F
TERRE HAUTE    CLOUDY    39  27  62 S14       29.87F

$$

INZ030>032-037>040-046>048-054>057-064-065-290900-
CENTRAL INDIANA

CITY           SKY/WX    TMP DP  RH WIND       PRES   REMARKS
INDIANAPOLIS   CLOUDY    34  19  54 S13       29.90F WCI  25
-EAGLE CREEK   CLOUDY    35  19  52 S12       29.90F WCI  27
KOKOMO *+      CLOUDY    34  23  64 S21G26    29.87F WCI  22
MT COMFORT *+  CLOUDY    36  12  38 S18       29.92F
SHELBYVILLE    CLOUDY    37  22  54 S18       29.94F

$$

INZ033-034-041-042-049-050-058-059-290900-
EAST CENTRAL INDIANA

CITY           SKY/WX    TMP DP  RH WIND       PRES   REMARKS
MUNCIE         CLOUDY    36  20  52 S17G26    29.91F

$$

INZ060-061-067>069-081>083-085>088-290900-
SOUTHWEST INDIANA

CITY           SKY/WX    TMP DP  RH WIND       PRES   REMARKS
EVANSVILLE     CLOUDY    44  32  62 S7        29.95F
HUNTINGBURG *+ MOCLDY    43  28  56 S14G23    29.97F

$$

INZ062-063-066-070>080-084-089>092-290900-
SOUTH CENTRAL AND SOUTHEAST INDIANA

CITY           SKY/WX    TMP DP  RH WIND       PRES   REMARKS
BLOOMINGTON    CLOUDY    37  20  50 S9        29.91F

$$



USA.gov is the U.S. government's official web portal to all federal, state and local government web resources and services.